Location: Home
(42.5358°N, 72.7383°W)
Time: 01:37:32
(UTC-05:00)

AO-109 - Visible Passes

Search period start: 28 January 2022 00:00
Search period end: 07 February 2022 00:00
Orbit: 479 x 515 km, 60.7° (Epoch: 27 January)

Date Brightness Start Highest point End Pass type
(mag) Time Alt. Az. Time Alt. Az. Time Alt. Az.
28 Jan ? 04:50:48 27° NNE 04:50:48 27° NNE 04:52:41 10° NE visible
28 Jan ? 06:25:25 10° WNW 06:27:10 13° NNW 06:28:55 10° N visible
29 Jan ? 04:29:56 15° NE 04:29:56 15° NE 04:30:42 10° NE visible
29 Jan ? 06:04:32 13° NW 06:05:09 13° NNW 06:07:03 10° N visible
30 Jan ? 05:43:33 14° NNW 05:43:33 14° NNW 05:45:09 10° N visible
31 Jan ? 05:22:27 12° N 05:22:27 12° N 05:23:14 10° N visible
01 Feb ? 05:01:16 10° N 05:01:16 10° N 05:01:19 10° N visible
